{"data":{"norad_id":67016,"intl_designator":"2025-293P","name":"STARLINK-36120","alt_names":[],"object_type":"PAYLOAD","status":"ACTIVE","operator":null,"country":"US","launch_date":"2025-12-10","launch_site_code":"AFWTR","launch_vehicle":null,"mission":null,"orbit_class":"UNKNOWN","rcs_meters":null,"size_class":null,"mass_kg":null,"dimensions":null,"purposes":["comms"],"wikipedia_slug":null,"has_3d_model":false,"image_url":null,"decayed_at":null,"tle_current":{"epoch":"2026-09-20T22:31:40.535904Z","epoch_age_seconds":43411,"freshness":"FRESH","line1":"1 67016U 25293P   26263.93866361 -.00010038  00000+0 -83532-3 0  9999","line2":"2 67016  70.0013 322.1870 0003178 266.9146  93.1649 14.98299053 44133","mean_motion":14.98299053,"eccentricity":0.0003178,"inclination_deg":70.0013,"raan_deg":322.187,"arg_perigee_deg":266.9146,"mean_anomaly_deg":93.1649,"bstar":-0.00083532,"rev_number":4413,"period_min":96.108984192223,"perigee_km":569.94279192126,"apogee_km":574.36039535138,"semimajor_km":6950.2885936363,"source":"CELESTRAK","updated_at":"2026-09-21T09:00:36.070996Z"}}}